Flag for Turkey Weather past 2 weeks in Ankara, Turkey

Now
63 °F

Passing clouds.


Feels Like: 63 °F
Forecast: 52 / 81 °F
Wind: 2 mph from North

Location: Ankara / Esenboga

Current Time: Sep 22, 2014 at 10:02:03 PM

Latest Report: Sep 22, 2014 at 9:20 PM


Visibility: N/A

Pressure: 29.92 "Hg

Humidity: 59%

Dew point: 48 °F

Location of AnkaraLocation

Historic Weather in Ankara — Graph

°F

Ankara temperature yesterday

Maximum temperature yesterday: 70 °F (at 2:50 PM)
Minimum temperature yesterday: 43 °F (at 4:50 AM)
Average temperature yesterday: 57 °F

Past Weeks' High & Low Weather Summary

 TemperatureHumidityPressure
High82 °F (Sep 12, 2:20 PM)100% (Sep 9, 7:20 AM)30.18 "Hg (Sep 9, 7:20 AM)
Low43 °F (Sep 21, 4:50 AM)20% (Sep 12, 3:20 PM)29.89 "Hg (Sep 7, 8:20 PM)
Average63 °F66%30.00 "Hg
* Reported Sep 7 8:20 PM — Sep 22 8:50 PM, Ankara, Weather by CustomWeather, © 2014

Note: Actual official high and low records may vary slightly from our data, if they occured in-between our weather recording intervals... More about our weather records

Advertising

Ankara weather history for previous 24 hours

 ConditionsComfort  
Time TempWeatherWind HumidityBarometerVisibility
8:50 PM
Sep 22
64 °FPassing clouds.2 mph56%29.92 "HgN/A
8:20 PM66 °FPassing clouds.3 mph52%29.92 "HgN/A
7:50 PM66 °FPassing clouds.5 mph52%29.92 "HgN/A
7:20 PM68 °FPassing clouds.2 mph46%29.89 "HgN/A
6:50 PM68 °FPassing clouds.6 mph46%29.89 "HgN/A
6:20 PM70 °FScattered clouds.8 mph43%29.89 "HgN/A
5:50 PM72 °FScattered clouds.10 mph41%29.89 "HgN/A
5:20 PM72 °FScattered clouds.12 mph41%29.89 "HgN/A
4:50 PM73 °FScattered clouds.10 mph38%29.89 "HgN/A
4:20 PM73 °FScattered clouds.13 mph41%29.89 "HgN/A
3:50 PM73 °FScattered clouds.10 mph38%29.89 "HgN/A
3:20 PM73 °FScattered clouds.12 mph41%29.92 "HgN/A
2:50 PM73 °FScattered clouds.14 mph38%29.92 "HgN/A
2:20 PM73 °FScattered clouds.12 mph38%29.92 "HgN/A
1:50 PM72 °FScattered clouds.10 mph38%29.92 "HgN/A
1:20 PM70 °FScattered clouds.9 mph40%29.95 "HgN/A
12:50 PM70 °FScattered clouds.9 mph40%29.95 "HgN/A
12:20 PM70 °FScattered clouds.8 mph40%29.95 "HgN/A
11:50 AM68 °FScattered clouds.8 mph38%29.95 "HgN/A
11:20 AM66 °FScattered clouds.5 mph43%29.95 "HgN/A
10:50 AM64 °FScattered clouds.3 mph46%29.98 "HgN/A
10:20 AM61 °FScattered clouds.1 mph55%29.98 "HgN/A
9:50 AM57 °FScattered clouds.2 mph63%29.98 "HgN/A
9:20 AM55 °FScattered clouds.2 mph72%29.98 "HgN/A
8:50 AM54 °FScattered clouds.1 mph77%29.98 "HgN/A
8:20 AM52 °FScattered clouds.2 mph77%29.98 "HgN/A
7:50 AM50 °FScattered clouds.1 mph82%29.95 "HgN/A
7:20 AM50 °FPassing clouds.3 mph82%29.95 "HgN/A
6:50 AM50 °FPassing clouds.1 mph76%29.95 "HgN/A
6:20 AM50 °FPassing clouds.3 mph76%29.95 "HgN/A
5:50 AM48 °FPassing clouds.No wind82%29.95 "HgN/A
5:20 AM48 °FPassing clouds.2 mph82%29.95 "HgN/A
4:50 AM48 °FPassing clouds.2 mph82%29.95 "HgN/A
4:20 AM48 °FPassing clouds.2 mph82%29.95 "HgN/A
3:50 AM46 °FPassing clouds.1 mph87%29.95 "HgN/A
3:20 AM48 °FPassing clouds.2 mph82%29.95 "HgN/A
2:50 AM48 °FPassing clouds.3 mph87%29.98 "HgN/A
2:20 AM48 °FPassing clouds.1 mph87%29.98 "HgN/A
1:50 AM48 °FPassing clouds.2 mph82%29.98 "HgN/A
1:20 AM50 °FPassing clouds.2 mph76%29.98 "HgN/A
12:50 AM52 °FPassing clouds.2 mph77%29.98 "HgN/A
12:20 AM52 °FPassing clouds.2 mph72%29.98 "HgN/A
11:50 PM
Sep 21
54 °FPassing clouds.2 mph67%29.98 "HgN/A
11:20 PM54 °FPassing clouds.1 mph67%29.98 "HgN/A
10:50 PM54 °FPassing clouds.3 mph67%29.98 "HgN/A
10:20 PM55 °FPassing clouds.5 mph63%29.98 "HgN/A
Weather by CustomWeather, © 2014

See weather overviewHow to use our weather pages